When you browse on this site, cookies collect data to enhance your experience and personalize the content and advertising you see.
Visit our Privacy Policy to learn more. By continuing to use the site, you agree to this use of cookies and data.
  • In Sweden
  • List of Countries
  • For 7 days
  • Water Temperature
  • Weather Map
  • Weather Widgets
  • user-avatar
    Login

    Hourly Weather Cleveland

    Today, 29 May, Friday

    Time Temperature Precipitation Wind Pressure Humidity
    00:00 +19°C° 0.3 mm 1 mps 738 mmHg 95%
    01:00 +19°C° 0 mm 1 mps 737 mmHg 95%
    02:00 +19°C° 0 mm 1 mps 737 mmHg 95%
    03:00 +18°C° 0 mm 1 mps 737 mmHg 95%
    04:00 +19°C° 0 mm 1 mps 737 mmHg 95%
    05:00 +20°C° 0 mm 1 mps 738 mmHg 94%
    06:00 +20°C° 0 mm 1 mps 738 mmHg 93%
    07:00 +21°C° 0 mm 1 mps 738 mmHg 88%
    08:00 +23°C° 0 mm 1 mps 738 mmHg 82%
    09:00 +24°C° 0 mm 2 mps 738 mmHg 77%
    10:00 +25°C° 0.1 mm 2 mps 738 mmHg 70%
    11:00 +27°C° 0.1 mm 3 mps 738 mmHg 63%
    12:00 +29°C° 0.1 mm 3 mps 738 mmHg 55%
    13:00 +28°C° 0.5 mm 3 mps 737 mmHg 61%
    14:00 +28°C° 0.5 mm 3 mps 737 mmHg 67%
    15:00 +27°C° 0.5 mm 3 mps 736 mmHg 73%
    16:00 +26°C° 0.4 mm 2 mps 736 mmHg 77%
    17:00 +25°C° 0.4 mm 2 mps 737 mmHg 82%
    18:00 +24°C° 0.4 mm 2 mps 737 mmHg 86%
    19:00 +23°C° 0.2 mm 1 mps 737 mmHg 89%
    20:00 +21°C° 0.2 mm 1 mps 737 mmHg 92%
    21:00 +20°C° 0.2 mm 1 mps 738 mmHg 95%
    22:00 +20°C° 0 mm 1 mps 738 mmHg 96%
    23:00 +19°C° 0 mm 1 mps 738 mmHg 96%

    Tomorrow, 30 May, Saturday

    Time Temperature Precipitation Wind Pressure Humidity
    00:00 +19°C° 0 mm 1 mps 738 mmHg 97%
    01:00 +18°C° 0 mm 1 mps 737 mmHg 97%
    02:00 +18°C° 0 mm 1 mps 737 mmHg 97%
    03:00 +16°C° 0 mm 1 mps 737 mmHg 97%
    04:00 +18°C° 0 mm 1 mps 737 mmHg 97%
    05:00 +18°C° 0 mm 1 mps 738 mmHg 96%
    06:00 +19°C° 0 mm 1 mps 738 mmHg 95%
    07:00 +19°C° 0 mm 2 mps 738 mmHg 86%
    08:00 +21°C° 0 mm 2 mps 738 mmHg 77%
    09:00 +24°C° 0 mm 3 mps 738 mmHg 68%
    10:00 +25°C° 0 mm 3 mps 738 mmHg 62%
    11:00 +26°C° 0 mm 3 mps 738 mmHg 55%
    12:00 +28°C° 0 mm 3 mps 737 mmHg 49%
    13:00 +28°C° 0 mm 3 mps 737 mmHg 49%
    14:00 +28°C° 0 mm 3 mps 737 mmHg 48%
    15:00 +28°C° 0 mm 3 mps 737 mmHg 47%
    16:00 +26°C° 0 mm 3 mps 737 mmHg 54%
    17:00 +25°C° 0 mm 3 mps 737 mmHg 62%
    18:00 +22°C° 0 mm 3 mps 737 mmHg 70%
    19:00 +21°C° 0 mm 3 mps 737 mmHg 74%
    20:00 +19°C° 0 mm 3 mps 738 mmHg 78%
    21:00 +18°C° 0 mm 3 mps 738 mmHg 82%
    22:00 +17°C° 0 mm 3 mps 738 mmHg 83%
    23:00 +17°C° 0 mm 3 mps 738 mmHg 85%

    Day after tomorrow, 31 May, Sunday

    Time Temperature Precipitation Wind Pressure Humidity
    00:00 +16°C° 0 mm 2 mps 738 mmHg 87%
    01:00 +15°C° 0 mm 2 mps 738 mmHg 88%
    02:00 +15°C° 0 mm 2 mps 738 mmHg 88%
    03:00 +13°C° 0 mm 3 mps 738 mmHg 89%
    04:00 +14°C° 0 mm 3 mps 738 mmHg 86%
    05:00 +14°C° 0 mm 3 mps 739 mmHg 83%
    06:00 +16°C° 0 mm 3 mps 739 mmHg 80%
    07:00 +18°C° 0 mm 4 mps 739 mmHg 72%
    08:00 +20°C° 0 mm 4 mps 740 mmHg 65%
    09:00 +21°C° 0 mm 5 mps 740 mmHg 58%
    10:00 +23°C° 0 mm 5 mps 740 mmHg 55%
    11:00 +25°C° 0 mm 4 mps 740 mmHg 51%
    12:00 +26°C° 0 mm 4 mps 740 mmHg 47%
    13:00 +26°C° 0 mm 4 mps 740 mmHg 47%
    14:00 +26°C° 0 mm 4 mps 739 mmHg 46%
    15:00 +26°C° 0 mm 4 mps 739 mmHg 45%
    16:00 +25°C° 0 mm 3 mps 739 mmHg 52%
    17:00 +22°C° 0 mm 3 mps 739 mmHg 59%
    18:00 +21°C° 0 mm 2 mps 739 mmHg 66%
    19:00 +19°C° 0 mm 3 mps 739 mmHg 68%
    20:00 +18°C° 0 mm 3 mps 740 mmHg 70%
    21:00 +16°C° 0 mm 3 mps 740 mmHg 72%
    22:00 +14°C° 0 mm 3 mps 740 mmHg 75%
    23:00 +13°C° 0 mm 3 mps 740 mmHg 77%

    1 June, Monday

    Time Temperature Precipitation Wind Pressure Humidity
    00:00 +13°C° 0 mm 2 mps 740 mmHg 80%
    01:00 +13°C° 0 mm 2 mps 740 mmHg 82%
    02:00 +12°C° 0 mm 3 mps 741 mmHg 84%
    03:00 +11°C° 0 mm 3 mps 741 mmHg 85%
    04:00 +12°C° 0 mm 3 mps 741 mmHg 82%
    05:00 +13°C° 0 mm 3 mps 742 mmHg 80%
    06:00 +13°C° 0 mm 3 mps 742 mmHg 77%
    07:00 +17°C° 0 mm 3 mps 742 mmHg 70%
    08:00 +19°C° 0 mm 3 mps 743 mmHg 63%
    09:00 +21°C° 0 mm 3 mps 743 mmHg 56%
    10:00 +23°C° 0 mm 2 mps 743 mmHg 53%
    11:00 +25°C° 0 mm 2 mps 743 mmHg 51%
    12:00 +26°C° 0 mm 2 mps 742 mmHg 48%
    13:00 +26°C° 0 mm 2 mps 742 mmHg 48%
    14:00 +26°C° 0 mm 2 mps 742 mmHg 48%
    15:00 +27°C° 0 mm 2 mps 741 mmHg 48%
    16:00 +25°C° 0 mm 2 mps 741 mmHg 55%
    17:00 +23°C° 0 mm 2 mps 741 mmHg 62%
    18:00 +22°C° 0 mm 1 mps 741 mmHg 70%
    19:00 +20°C° 0 mm 1 mps 741 mmHg 70%
    20:00 +19°C° 0 mm 1 mps 742 mmHg 71%
    21:00 +16°C° 0 mm 1 mps 742 mmHg 71%
    22:00 +16°C° 0 mm 1 mps 742 mmHg 73%
    23:00 +15°C° 0 mm 1 mps 742 mmHg 74%

    2 June, Tuesday

    Time Temperature Precipitation Wind Pressure Humidity
    00:00 +13°C° 0 mm 0 mps 742 mmHg 75%
    01:00 +13°C° 0 mm 0 mps 742 mmHg 77%
    02:00 +13°C° 0 mm 0 mps 742 mmHg 78%
    03:00 +13°C° 0 mm 0 mps 742 mmHg 79%
    04:00 +14°C° 0 mm 0 mps 742 mmHg 79%
    05:00 +15°C° 0 mm 0 mps 743 mmHg 78%
    06:00 +16°C° 0 mm 0 mps 743 mmHg 78%
    07:00 +20°C° 0 mm 1 mps 743 mmHg 72%
    08:00 +21°C° 0 mm 2 mps 743 mmHg 67%
    09:00 +25°C° 0 mm 3 mps 743 mmHg 61%
    10:00 +26°C° 0 mm 3 mps 743 mmHg 58%
    11:00 +27°C° 0 mm 3 mps 743 mmHg 54%
    12:00 +29°C° 0 mm 3 mps 742 mmHg 51%
    13:00 +29°C° 0 mm 3 mps 742 mmHg 50%
    14:00 +29°C° 0 mm 2 mps 741 mmHg 50%
    15:00 +29°C° 0 mm 2 mps 741 mmHg 49%
    16:00 +28°C° 0 mm 2 mps 741 mmHg 57%
    17:00 +27°C° 0 mm 2 mps 740 mmHg 64%
    18:00 +25°C° 0 mm 1 mps 740 mmHg 71%
    19:00 +24°C° 0 mm 1 mps 740 mmHg 73%
    20:00 +22°C° 0 mm 1 mps 741 mmHg 75%
    21:00 +21°C° 0 mm 1 mps 741 mmHg 76%
    22:00 +20°C° 0 mm 1 mps 741 mmHg 78%
    23:00 +20°C° 0 mm 1 mps 740 mmHg 80%

    3 June, Wednesday

    Time Temperature Precipitation Wind Pressure Humidity
    00:00 +19°C° 0 mm 1 mps 740 mmHg 81%
    01:00 +18°C° 0 mm 2 mps 740 mmHg 82%
    02:00 +17°C° 0 mm 2 mps 740 mmHg 83%
    03:00 +17°C° 0 mm 2 mps 739 mmHg 84%
    04:00 +18°C° 0 mm 2 mps 740 mmHg 83%
    05:00 +19°C° 0 mm 2 mps 740 mmHg 82%
    06:00 +19°C° 0 mm 2 mps 741 mmHg 82%
    07:00 +23°C° 0 mm 2 mps 741 mmHg 76%
    08:00 +25°C° 0 mm 2 mps 740 mmHg 69%
    09:00 +27°C° 0 mm 2 mps 740 mmHg 63%
    10:00 +29°C° 0 mm 3 mps 740 mmHg 59%
    11:00 +30°C° 0 mm 3 mps 740 mmHg 55%
    12:00 +31°C° 0 mm 3 mps 739 mmHg 51%
    13:00 +33°C° 0 mm 3 mps 739 mmHg 52%
    14:00 +33°C° 0 mm 3 mps 738 mmHg 52%
    15:00 +33°C° 0 mm 3 mps 738 mmHg 52%
    16:00 +30°C° 0 mm 3 mps 737 mmHg 60%
    17:00 +29°C° 0 mm 3 mps 737 mmHg 67%
    18:00 +28°C° 0 mm 2 mps 737 mmHg 75%
    19:00 +26°C° 0 mm 2 mps 737 mmHg 79%
    20:00 +25°C° 0 mm 1 mps 738 mmHg 84%
    21:00 +23°C° 0 mm 1 mps 738 mmHg 88%
    22:00 +23°C° 0 mm 1 mps 738 mmHg 89%
    23:00 +22°C° 0 mm 1 mps 738 mmHg 91%
    Show more